This is the latest recevied weather packets stored in our database for station/object SP2WPY-13. If no packets are shown the sender has not sent any weather packets the latest 10 day(s).
| Time | Temp. | Humidity | Pressure | Rain* | Wind** | Luminosity | Snow |
|---|---|---|---|---|---|---|---|
| 1787813441 | 20.56° C | 83% | 1027.7 hPa | - | - | - | - |
| 1787813121 | 21.11° C | 84% | 1027.8 hPa | - | - | - | - |
| 1787812801 | 21.11° C | 82% | 1027.8 hPa | - | - | - | - |
| 1787812528 | 21.11° C | 86% | 1027.8 hPa | - | - | - | - |
| 1787812207 | 21.11° C | 83% | 1027.7 hPa | - | - | - | - |
| 1787811934 | 21.67° C | 81% | 1027.8 hPa | - | - | - | - |
| 1787811613 | 21.67° C | 78% | 1027.7 hPa | - | - | - | - |
| 1787811339 | 22.22° C | 77% | 1027.7 hPa | - | - | - | - |
| 1787811020 | 21.67° C | 77% | 1027.7 hPa | - | - | - | - |
| 1787810745 | 22.22° C | 75% | 1027.7 hPa | - | - | - | - |
| 1787810426 | 22.22° C | 74% | 1027.7 hPa | - | - | - | - |
| 1787810105 | 22.22° C | 77% | 1027.7 hPa | - | - | - | - |
| 1787809832 | 21.67° C | 80% | 1027.7 hPa | - | - | - | - |
| 1787809512 | 21.11° C | 85% | 1027.7 hPa | - | - | - | - |
| 1787809238 | 20.56° C | 93% | 1027.7 hPa | - | - | - | - |
| 1787808919 | 19.44° C | 100% | 1027.7 hPa | - | - | - | - |
| 1787808645 | 18.33° C | 100% | 1027.8 hPa | - | - | - | - |
| 1787808325 | 17.22° C | 100% | 1027.8 hPa | - | - | - | - |
| 1787808005 | 15.56° C | 100% | 1027.9 hPa | - | - | - | - |
| 1787807731 | 15.56° C | 100% | 1027.8 hPa | - | - | - | - |
| 1787807412 | 15° C | 100% | 1027.8 hPa | - | - | - | - |
| 1787807138 | 14.44° C | 100% | 1027.8 hPa | - | - | - | - |
| 1787806820 | 14.44° C | 100% | 1027.8 hPa | - | - | - | - |
| 1787806543 | 13.89° C | 100% | 1027.8 hPa | - | - | - | - |
| 1787806224 | 13.89° C | 100% | 1027.8 hPa | - | - | - | - |
* Rain since midnight (hover to see other rain measurements)
** Current wind speed in m/s (hover to see current wind gust speed)